Trapani, Italy

3:58 AM CEST on March 30, 2017 (GMT +0200)
Birgi Mil

Weather History for LICT - December, 2012

Change the Weather History Date:

Tuesday, December 11, 2012

  Actual Average Record
Temperature  
Mean Temperature 55 °F -  
Max Temperature 60 °F 60 °F 66 °F (2004)
Min Temperature 50 °F 48 °F 42 °F (2001)
Degree Days  
Heating Degree Days 10    
Growing Degree Days 5 (Base 50)    
Moisture  
Dew Point 43 °F    
Average Humidity 61    
Maximum Humidity 87    
Minimum Humidity 27    
Precipitation  
Precipitation 0.00 in 0.08 in - ()
Sea Level Pressure  
Sea Level Pressure 29.92 in    
Wind  
Wind Speed 14 mph ()    
Max Wind Speed 25 mph    
Max Gust Speed -    
Visibility 6.7 miles    
Events Rain    
Averages and records for this station are not official NWS values.
T = Trace of Precipitation, MM = Missing Value Source: Averaged Metar Reports

Daily Weather History Graph

Daily Weather History Graph

Search for Another Location

Airport or City:

Trip Planner

Search our weather history database for the weather conditions in past years. The results will help you decide how hot, cold, wet, or windy it might be!

Date:

Astronomy

Dec. 11, 2012 Rise Set
Actual Time 7:15 AM CET 4:50 PM CET
Civil Twilight 6:46 AM CET 5:20 PM CET
Nautical Twilight 6:13 AM CET 5:53 PM CET
Astronomical Twilight 5:41 AM CET 6:25 PM CET
Moon 4:51 AM CET (12/11) 3:14 PM CET (12/11)
Length of Visible Light 10h 33m
Length of Day
9h 35m
Waning Crescent, 5% of the Moon is Illuminated
Dec 11
Waning Crescent
Dec 13
New
Dec 20
First Quarter
Dec 28
Full
Jan 5
Last Quarter

Hourly Weather History & Observations

Time (CET) Temp. Dew Point Humidity Pressure Visibility Wind Dir Wind Speed Gust Speed Precip Events Conditions
12:55 AM 57.2 °F 46.4 °F 67% 29.86 in 6.2 mi West 17.3 mph - N/A   Scattered Clouds
1:00 AM 58 °F 47 °F 56% 29.89 in 7 mi West 17.3 mph - -   Partly Cloudy
2:55 AM 57.2 °F 48.2 °F 72% 29.86 in 6.2 mi West 20.7 mph - N/A   Scattered Clouds
3:55 AM 57.2 °F 46.4 °F 67% 29.86 in 6.2 mi WNW 23.0 mph - N/A   Mostly Cloudy
4:55 AM 57.2 °F 48.2 °F 72% 29.86 in 6.2 mi WNW 25.3 mph - N/A   Scattered Clouds
5:55 AM 57.2 °F 42.8 °F 59% 29.89 in 6.2 mi NW 23.0 mph - N/A   Scattered Clouds
6:55 AM 57.2 °F 50.0 °F 77% 29.89 in 6.2 mi NNW 16.1 mph - N/A   Scattered Clouds
7:00 AM 57 °F 50 °F 69% 29.91 in 10 mi NNW 16.1 mph - -   Partly Cloudy
7:55 AM 55.4 °F 46.4 °F 72% 29.89 in 6.2 mi NW 15.0 mph - N/A   Scattered Clouds
8:55 AM 59.0 °F 44.6 °F 59% 29.92 in 6.2 mi NW 12.7 mph - N/A   Scattered Clouds
9:55 AM 57.2 °F 46.4 °F 67% 29.95 in 6.2 mi NNW 10.4 mph - N/A   Scattered Clouds
10:55 AM 57.2 °F 41.0 °F 55% 29.95 in 6.2 mi NW 12.7 mph - N/A   Scattered Clouds
11:55 AM 59.0 °F 35.6 °F 42% 29.92 in 6.2 mi NW 15.0 mph - N/A   Scattered Clouds
12:55 PM 59.0 °F 33.8 °F 39% 29.92 in 6.2 mi NW 16.1 mph - N/A   Partly Cloudy
1:00 PM 59 °F 34 °F 27% 29.94 in 11 mi NW 16.1 mph - -   Partly Cloudy
1:55 PM 59.0 °F 33.8 °F 39% 29.92 in 6.2 mi WNW 11.5 mph - N/A   Scattered Clouds
2:55 PM 59.0 °F 35.6 °F 42% 29.92 in 6.2 mi WNW 11.5 mph - N/A   Scattered Clouds
3:55 PM 55.4 °F 37.4 °F 51% 29.95 in 6.2 mi WNW 9.2 mph - N/A   Scattered Clouds
4:55 PM 55.4 °F 39.2 °F 54% 29.95 in 6.2 mi WNW 10.4 mph - N/A   Scattered Clouds
5:55 PM 53.6 °F 42.8 °F 67% 29.95 in 6.2 mi West 6.9 mph - N/A   Scattered Clouds
6:55 PM 50.0 °F 41.0 °F 71% 29.95 in 6.2 mi West 8.1 mph - N/A   Scattered Clouds
7:00 PM 51 °F 41 °F 58% 29.95 in 9 mi West 8.1 mph - -   Partly Cloudy
7:55 PM 51.8 °F 44.6 °F 76% 29.95 in 6.2 mi West 15.0 mph - N/A Rain Light Rain
8:55 PM 51.8 °F 46.4 °F 82% 29.98 in 6.2 mi West 3.5 mph - N/A   Scattered Clouds
9:55 PM 50.0 °F 46.4 °F 87% 29.98 in 6.2 mi West 10.4 mph - N/A   Scattered Clouds
10:55 PM 53.6 °F 42.8 °F 67% 29.98 in 6.2 mi WNW 20.7 mph - N/A   Scattered Clouds
11:55 PM 53.6 °F 41.0 °F 62% 29.98 in 6.2 mi WNW 19.6 mph - N/A   Scattered Clouds